Location: Unspecified
(0.0000°N, 0.0000°E)
Time: 23:25:55
(UTC+00:00)

RS-15 - Visible Passes

Search period start: 19 January 2019 00:00
Search period end: 29 January 2019 00:00
Orbit: 1896 x 2148 km, 64.8° (Epoch: 18 January)

Date Brightness Start Highest point End Pass type
(mag) Time Alt. Az. Time Alt. Az. Time Alt. Az.
19 Jan 8.4 03:17:37 38° NNE 03:21:24 51° ENE 03:32:04 10° SE visible
19 Jan 8.8 05:25:27 12° WNW 05:33:22 27° WSW 05:42:15 10° SSW visible
20 Jan 8.8 02:43:43 34° NE 02:45:27 35° ENE 02:55:10 10° SE visible
20 Jan 8.4 04:51:32 24° WNW 04:57:18 39° WSW 05:07:32 10° S visible
21 Jan 9.3 02:09:46 24° ENE 02:09:46 24° ENE 02:17:35 10° ESE visible
21 Jan 8.0 04:17:35 41° WNW 04:21:19 56° WSW 04:32:18 10° S visible
22 Jan 9.8 01:35:46 13° E 01:35:46 13° E 01:38:38 10° E visible
22 Jan 7.7 03:43:35 67° NW 03:45:22 79° WSW 03:56:39 10° SSE visible
23 Jan 7.8 03:09:32 76° ENE 03:09:32 76° ENE 03:20:40 10° SSE visible
23 Jan 9.1 05:17:21 13° W 05:21:39 16° WSW 05:27:42 10° SSW visible
24 Jan 8.4 02:35:27 49° E 02:35:27 49° E 02:44:17 10° SE visible
24 Jan 8.7 04:43:15 24° W 04:45:30 25° WSW 04:54:08 10° SSW visible
25 Jan 9.1 02:01:18 30° ESE 02:01:18 30° ESE 02:07:29 10° SE visible
25 Jan 8.4 04:09:06 37° WSW 04:09:26 37° WSW 04:19:31 10° S visible
26 Jan 9.7 01:27:07 17° ESE 01:27:07 17° ESE 01:30:01 10° ESE visible
26 Jan 8.1 03:34:55 51° SW 03:34:55 51° SW 03:44:20 10° S visible
27 Jan 8.3 03:00:41 53° S 03:00:41 53° S 03:08:45 10° SSE visible
28 Jan 8.7 02:26:24 41° SSE 02:26:24 41° SSE 02:32:49 10° SSE visible
28 Jan 9.3 04:34:12 15° WSW 04:34:12 15° WSW 04:39:18 10° SW visible
